Hourly Data Report for March 10, 2012

All times are specified in Local Standard Time (LST). Add 1 hour to adjust for Daylight Saving Time where and when it is observed.

Metadata including Station Name, Province, Latitude, Longitude, Elevation, Climate ID, WMO ID, TC ID
ST-JOVITE
QUEBEC
Latitude: 46°04'49.000" N Longitude: 74°33'21.000" W Elevation: 238.50 m
Climate ID: 703GDKB WMO ID: 71376 TC ID: WJT
Hourly Data Report for March 10, 2012
Temp Definition
°C

Dew Point Temp Definition
°C

Rel Hum Definition
%

Wind Dir Definition
10's deg
Wind Spd Definition
km/h

Visibility Definition
km

Stn Press Definition
kPa

Hmdx Definition

Wind Chill Definition

Weather Definition

TIME
00:00 -9.0 -9.6 95   0 99.34 LegendNANA
01:00 -7.4 -11.0 75 35 2 99.48 -8 LegendNANA
02:00 -7.5 -12.9 65 2 2 99.61 -9 LegendNANA
03:00 -9.1 -13.6 70 35 4 99.72 -11 LegendNANA
04:00 -10.6 -13.8 77 35 4 99.83 -13 LegendNANA
05:00 -12.7 -14.2 89 35 2 99.99 -14 LegendNANA
06:00 -13.4 -14.6 91 35 2 100.08 -15 LegendNANA
07:00 -13.7 -14.8 91   0 100.16 LegendNANA
08:00 -10.2 -14.1 73 34 6 100.29 -14 LegendNANA
09:00 -8.7 -14.4 63 29 6 100.33 -12 LegendNANA
10:00 -8.0 -14.9 58 24 6 100.36 -11 LegendNANA
11:00 -6.3 -14.3 53 24 7 100.38 -10 LegendNANA
12:00 -4.0 -14.1 45 15 4 100.28 -6 LegendNANA
13:00 -3.3 -14.1 43 16 6 100.18 -6 LegendNANA
14:00 -2.5 -14.5 39 20 9 100.10 -6 LegendNANA
15:00 -2.1 -14.4 38 22 13 100.02 -7 LegendNANA
16:00 -2.6 -14.0 41 20 11 100.00 -7 LegendNANA
17:00 -3.4 -12.8 48 19 9 99.98 -7 LegendNANA
18:00 -4.3 -11.6 57 19 7 100.00 -7 LegendNANA
19:00 -4.8 -11.0 62 18 7 99.98 -8 LegendNANA
20:00 -4.8 -10.1 66 17 6 99.93 -8 LegendNANA
21:00 -4.6 -9.0 71 17 6 99.90 -7 LegendNANA
22:00 -4.6 -8.0 77 20 7 99.87 -8 LegendNANA
23:00 -5.5 -8.5 79 16 4 99.77 -7 LegendNANA

Notes on Data Quality.

Legend
  • E = Estimated
  • M = Missing
  • NA = Not Available
  • ‡ = Partner data that is not subject to review by the National Climate Archives